CAPE
0 0 1 2 3 3 3 7 8 7 9 5 2 1 0 0 0 0 0 0 0 0 0 0 0 0 0 0 0 0 0 0 0 0 0 0 0 0 0 0 0 0 0 0 0 0 0
2 2 4 12 5 1 11 5 3 3 3 2 1 1 0 1 0 0 0 0 0 0 0 0 0 0 0 0 0 0 0 0 0 0 0 0 0 0 0 0 0 0 0 0 0 0 0
1 4 14 0 0 0 0 2 1 2 1 1 0 0 0 0 0 0 0 0 0 0 0 0 0 0 0 0 0 0 0 0 0 0 0 0 0 0 0 0 0 0 0 0 0 0 0
7 0 0 0 0 0 0 1 1 1 0 0 0 0 0 0 0 0 0 0 0 0 0 0 0 0 0 0 0 0 0 0 0 0 0 0 0 0 0 0 0 0 0 0 0 0 0
0 0 0 0 0 1 1 0 2 0 0 0 0 0 0 0 0 0 0 0 0 0 0 0 0 0 0 0 0 0 0 0 0 0 0 0 0 0 0 0 0 0 0 0 0 0 0
0 0 0 0 0 0 0 0 0 0 0 0 0 0 0 0 0 0 0 0 0 0 0 0 0 0 0 0 0 0 0 0 0 0 0 0 0 0 0 0 0 0 0 0 0 0 0
0 0 0 0 0 0 0 0 0 0 0 0 0 0 0 0 0 0 0 0 0 0 0 0 0 0 0 0 0 0 0 0 0 0 0 0 0 0 0 0 0 0 0 0 0 0 0
0 0 0 0 0 0 0 0 0 0 0 0 0 0 0 0 0 0 0 0 0 0 0 0 0 0 0 0 0 0 0 0 0 0 0 0 0 0 0 0 0 0 0 0 0 0 0
0 0 0 0 0 0 0 0 0 0 0 0 0 0 0 0 0 0 0 0 0 0 0 0 0 0 0 0 0 0 0 0 0 0 0 0 0 0 0 0 0 0 0 0 0 0 0
0 0 0 0 0 0 0 0 0 0 0 0 0 0 0 0 0 0 0 0 0 0 0 0 0 0 0 0 0 0 0 0 0 0 0 0 0 0 0 0 0 0 0 0 0 0 0
0 0 0 0 0 0 0 0 0 0 0 0 0 0 0 0 0 0 0 0 0 0 0 0 0 0 0 0 0 0 0 0 0 0 0 0 0 0 0 0 0 0 0 0 0 0 0
0 0 0 0 0 0 0 0 0 0 0 0 0 0 0 0 0 0 0 0 0 0 0 0 0 0 0 0 0 0 0 0 0 0 0 0 0 0 0 0 0 0 0 0 0 0 0
0 0 0 0 0 0 0 0 0 0 0 0 0 0 0 0 0 0 0 0 0 0 0 0 0 0 0 0 0 0 0 0 0 0 0 0 0 0 0 0 0 0 0 0 0 0 0
0 0 0 0 0 0 0 0 0 0 0 0 0 0 0 0 0 0 0 0 0 0 0 0 0 0 0 0 0 0 0 0 0 0 0 0 0 0 0 0 0 0 0 0 0 0 0
0 0 0 0 0 0 0 0 0 0 0 0 0 0 0 0 0 0 0 0 0 0 0 0 0 0 0 0 0 0 0 0 0 0 0 0 0 0 0 0 0 0 0 0 0 0 0
0 0 0 0 0 0 0 0 0 0 0 0 0 0 0 0 0 0 0 0 0 0 0 0 0 0 0 0 0 0 0 0 0 0 0 0 0 0 0 0 0 0 0 0 0 0 0
0 0 0 0 0 0 0 0 0 0 0 0 0 0 0 0 0 0 0 0 0 0 0 0 0 0 0 0 0 0 0 0 0 0 0 0 0 0 0 0 0 0 0 0 0 0 0
0 0 0 0 0 0 0 0 0 0 0 0 0 0 0 0 0 0 0 0 0 0 0 0 0 0 0 0 0 0 0 0 0 0 0 0 0 0 0 0 0 0 0 0 0 0 0
0 0 0 0 0 0 0 0 0 0 0 0 0 0 0 0 0 0 0 0 0 0 0 0 0 0 0 0 0 0 0 0 0 0 0 0 0 0 0 0 0 0 0 0 0 0 0
0 0 0 0 0 0 0 0 0 0 0 0 0 0 0 0 0 0 0 0 0 0 0 0 0 0 0 0 0 0 0 0 0 0 0 0 0 0 0 0 0 0 0 0 0 0 0
0 0 0 0 0 0 0 0 0 0 0 0 0 0 0 0 0 0 0 0 0 0 0 0 0 0 0 0 0 0 0 0 0 0 0 0 0 0 0 0 0 0 0 0 0 0 0
0 0 0 0 0 0 0 0 0 0 0 0 0 0 0 0 0 0 0 0 0 0 0 0 0 0 0 0 0 0 0 0 0 0 0 0 0 0 0 0 0 0 0 0 0 0 0
0 0 0 0 0 0 0 0 0 0 0 0 0 0 0 0 0 0 0 0 0 0 0 0 0 0 0 0 0 0 0 0 0 0 0 0 0 0 0 0 0 0 0 0 0 0 0
0 1 2 3 0 0 0 0 0 0 0 0 0 0 0 0 0 0 0 0 0 0 0 0 0 0 0 0 0 0 0 0 0 0 0 0 0 1 0 0 0 0 0 0 0 0 0
1 2 3 4 0 0 0 0 0 0 0 0 0 0 0 0 0 0 0 0 0 0 0 0 0 0 0 0 0 0 0 0 0 0 0 0 0 0 0 0 0 0 0 0 0 0 0
1 3 4 3 1 0 0 0 0 0 0 0 0 0 0 0 0 0 0 0 0 0 0 0 0 0 0 0 0 0 0 0 0 0 0 0 0 0 0 0 0 0 0 0 0 0 1
1 4 4 3 2 5 1 0 0 0 0 0 0 0 0 0 0 0 0 0 0 0 0 0 0 0 0 0 0 0 0 0 0 0 0 0 0 0 0 0 0 0 0 0 0 0 0
2 3 3 4 7 7 27 14 17 7 0 0 0 0 0 0 0 0 0 0 0 0 0 0 0 0 0 0 0 0 0 0 0 0 0 0 3 0 0 0 0 0 0 0 0 0 0
2 3 3 7 10 19 10 25 25 17 22 11 0 0 0 0 0 0 0 0 0 0 0 0 0 0 0 0 0 0 0 0 0 0 0 0 0 0 0 0 0 0 0 0 0 0 0
CIN
0 0 0 0 0 0 0 0 0 0 0 0 0 0 0 0 0 0 0 0 0 0 0 0 0 0 0 0 0 0 0 0 0 0 0 0 0 0 0 0 0 0 0 0 0 0 0
0 0 0 0 0 0 0 0 0 0 0 0 0 0 0 0 0 0 0 0 0 0 0 0 0 0 0 0 0 0 0 0 0 0 0 0 0 0 0 0 0 0 0 0 0 0 0
0 0 0 0 0 0 0 0 -1 0 0 0 0 0 0 0 0 0 0 0 0 0 0 0 0 0 0 0 0 0 0 0 0 0 0 0 0 0 0 0 0 0 0 0 0 0 0
0 0 0 0 0 0 0 0 0 0 0 0 0 0 0 0 0 0 0 0 0 0 0 0 0 0 0 0 0 0 0 0 0 0 0 0 0 0 0 0 0 0 0 0 0 0 0
0 0 0 0 0 0 0 0 0 0 0 0 0 0 0 0 0 0 0 0 0 0 0 0 0 0 0 0 0 0 0 0 0 0 0 0 0 0 0 0 0 0 0 0 0 0 0
0 0 0 0 0 0 0 0 0 0 0 0 0 0 0 0 0 0 0 0 0 0 0 0 0 0 0 0 0 0 0 0 0 0 0 0 0 0 0 0 0 0 0 0 0 0 0
0 0 0 0 0 0 0 0 0 0 0 0 0 0 0 0 0 0 0 0 0 0 0 0 0 0 0 0 0 0 0 0 0 0 0 0 0 0 0 0 0 0 0 0 0 0 0
0 0 0 0 0 0 0 0 0 0 0 0 0 0 0 0 0 0 0 0 0 0 0 0 0 0 0 0 0 0 0 0 0 0 0 0 0 0 0 0 0 0 0 0 0 0 0
0 0 0 0 0 0 0 0 0 0 0 0 0 0 0 0 0 0 0 0 0 -1 0 0 0 0 0 0 0 0 0 0 0 0 0 0 0 0 0 0 0 0 0 0 0 0 0
0 0 0 0 0 0 0 0 0 0 0 0 0 0 0 0 0 0 0 0 0 0 0 0 0 0 0 0 0 0 0 0 0 0 0 0 0 0 0 0 0 0 0 0 0 0 0
0 0 0 0 0 0 0 0 0 0 0 0 0 0 0 0 0 0 0 0 0 0 0 0 0 0 0 0 0 0 0 0 0 0 0 0 0 0 0 0 0 0 0 0 0 0 0
0 0 0 0 0 0 0 0 0 0 0 0 0 0 0 0 0 0 0 0 0 0 0 0 0 0 0 0 0 0 0 0 0 0 0 0 0 0 0 0 0 0 0 0 0 0 0
0 0 0 0 0 0 0 0 0 0 0 0 0 0 0 0 0 0 0 0 0 0 0 0 0 0 0 0 0 0 0 0 0 0 0 0 0 0 0 0 0 0 0 0 0 0 0
0 0 0 0 0 0 0 0 0 0 0 0 0 0 0 0 0 0 0 0 0 0 0 0 0 0 0 0 0 0 0 0 0 0 0 0 0 0 0 0 0 0 0 0 0 0 0
0 0 0 0 0 0 0 0 0 0 0 0 0 0 0 0 0 0 0 0 0 0 0 0 0 0 0 0 0 0 0 0 0 0 0 0 0 0 0 0 0 0 0 0 0 0 0
0 0 0 0 0 0 0 0 0 0 0 0 0 0 0 0 0 0 0 0 0 0 0 0 0 0 0 0 0 0 0 0 0 0 0 0 0 0 0 0 0 0 0 0 0 0 0
0 0 0 0 0 0 0 0 0 0 0 0 0 0 0 0 0 0 0 0 0 0 0 0 0 0 0 0 0 0 0 0 0 0 0 0 0 0 0 0 0 0 0 0 0 0 0
0 0 0 0 0 0 0 0 0 0 0 0 0 0 0 0 0 0 0 0 0 0 0 0 0 0 0 0 0 0 0 0 0 0 0 0 0 0 0 0 0 0 0 0 0 0 0
0 0 0 0 0 0 0 0 0 0 0 0 0 0 0 0 0 0 0 0 0 0 0 0 0 0 0 0 0 0 0 0 0 0 0 0 0 0 0 0 0 0 0 0 0 0 0
0 0 0 0 0 0 0 0 0 0 0 0 0 0 0 0 0 0 0 0 0 0 0 0 0 0 0 0 0 0 0 0 0 0 0 0 0 0 0 0 0 0 0 0 0 -2 0
0 0 0 0 0 0 0 0 0 0 0 0 0 0 0 0 0 0 0 0 0 0 0 0 0 0 0 0 0 0 0 0 0 0 0 0 0 0 0 0 0 0 0 0 0 0 0
0 0 0 0 0 0 0 0 0 0 0 0 0 0 0 0 0 0 0 0 0 0 0 0 0 0 0 0 0 0 0 0 0 0 0 0 0 -3 0 0 0 0 0 0 0 0 0
0 0 0 0 0 0 0 0 0 0 0 0 0 0 0 0 0 0 0 0 0 0 0 0 0 0 0 0 0 0 0 0 0 0 0 0 0 0 0 0 0 0 0 0 0 0 0
0 0 0 0 0 0 0 0 0 0 0 0 0 0 0 0 0 0 0 0 0 0 0 0 0 0 0 0 0 0 0 0 0 0 0 0 0 -1 0 0 0 0 0 0 0 0 0
0 0 0 0 0 0 0 0 0 0 0 0 0 0 0 0 0 0 0 0 0 0 0 0 0 0 0 0 0 0 0 0 0 0 0 0 0 0 0 0 0 0 0 0 0 0 0
0 0 0 0 0 0 0 0 0 0 0 0 0 0 0 0 0 0 0 0 0 0 0 0 0 0 0 0 0 0 0 0 0 0 0 0 0 0 0 0 0 0 0 0 0 0 0
0 0 0 0 0 0 0 0 0 0 0 0 0 0 0 0 0 0 0 0 0 0 0 0 0 0 0 0 0 0 0 0 0 0 0 0 0 0 0 0 0 0 0 0 -1 0 0
0 0 0 0 0 0 0 0 0 -1 0 0 0 0 0 0 0 0 0 0 0 0 0 0 0 0 0 0 0 0 0 0 0 0 0 0 -4 0 0 0 0 0 0 0 0 0 0
0 0 0 0 0 0 0 0 -1 -1 0 -5 0 0 0 0 0 0 0 0 0 0 0 0 0 0 0 0 0 0 0 0 0 0 0 0 0 0 0 -1 0 0 0 0 0 0 0
Wind_Speed
23 24 25 26 27 28 27 26 26 24 21 14 10 11 11 12 11 11 10 9 6 5 8 11 12 12 15 17 15 12 12 8 14 17 26 20 22 18 18 17 17 16 17 17 15 18 19
22 24 25 27 28 29 28 30 29 33 35 11 11 11 11 11 11 12 10 7 5 8 13 12 13 13 17 18 14 11 10 14 24 23 25 23 19 16 17 17 18 19 19 18 16 16 19
22 24 25 27 28 29 28 29 29 28 32 12 13 12 11 11 11 11 10 8 4 9 14 15 15 17 22 18 14 12 12 16 20 22 21 21 18 19 18 18 18 17 19 21 19 19 19
23 24 25 27 28 28 27 27 27 29 31 29 10 20 19 15 11 12 13 9 7 13 15 17 17 17 19 16 14 14 12 14 17 18 20 18 18 17 19 17 18 20 17 22 22 20 20
22 24 26 27 29 28 27 28 29 29 32 35 27 35 29 22 14 13 15 3 21 19 17 16 18 18 19 15 16 12 14 13 11 16 16 18 17 18 20 20 18 21 22 24 24 22 22
22 24 26 27 28 28 27 28 29 31 33 36 37 36 32 33 23 14 12 19 20 20 17 16 18 18 17 15 13 13 13 14 16 14 16 18 17 15 17 17 9 14 22 22 22 23 25
22 24 26 27 28 28 28 29 30 32 33 36 38 39 34 32 29 8 28 19 20 18 26 21 17 17 15 14 15 16 16 14 16 17 16 17 17 14 17 17 15 15 18 23 24 22 30
22 24 26 27 28 29 29 29 31 33 34 35 38 40 36 28 33 32 29 25 21 17 19 20 18 17 17 17 16 16 20 17 18 18 17 16 15 14 16 17 15 14 16 22 23 23 31
21 23 26 27 28 28 29 30 31 33 34 36 38 40 36 31 23 26 31 27 19 17 18 20 19 18 17 18 17 16 20 16 17 18 19 16 14 16 17 18 17 15 16 20 22 29 22
19 23 25 27 27 28 29 30 32 34 35 36 38 39 39 35 22 22 23 25 20 17 18 19 19 18 17 17 17 17 21 19 18 18 19 16 16 17 17 15 18 14 18 23 25 27 23
18 21 24 25 26 27 28 30 32 34 35 37 37 36 36 30 22 22 20 21 18 17 18 18 18 17 17 18 17 17 19 18 19 18 17 17 15 16 16 15 18 16 24 22 22 19 23
18 20 23 24 25 27 28 30 32 34 35 37 37 35 34 24 22 20 21 19 18 18 19 18 16 19 20 18 17 18 19 19 18 17 15 14 16 15 15 16 16 21 24 23 20 18 16
17 19 21 23 24 26 28 30 32 34 35 36 36 33 26 23 24 21 21 18 19 21 17 18 18 19 21 18 18 18 20 22 21 22 21 19 16 14 15 17 19 22 23 20 18 17 16
16 18 20 21 23 26 28 30 32 34 35 36 36 27 23 21 21 23 20 20 22 18 19 18 18 19 19 21 18 19 20 22 20 19 20 21 21 16 15 19 17 19 19 18 22 21 20
15 17 18 19 22 25 27 30 32 33 34 35 32 24 23 23 23 21 21 22 20 19 18 22 22 22 20 20 21 22 20 19 17 17 20 22 20 17 17 17 18 18 18 17 19 18 19
15 15 17 18 21 23 27 29 32 32 33 33 26 24 23 24 23 22 21 20 18 17 18 19 22 21 21 22 24 24 21 20 19 19 18 19 23 18 18 17 18 17 17 19 19 23 23
15 15 15 17 20 22 24 28 30 32 33 27 24 22 22 25 21 22 22 20 18 18 19 19 19 21 21 22 22 22 20 20 19 19 20 21 19 21 21 18 19 18 17 16 17 16 20
15 15 16 17 18 20 23 25 28 30 32 24 22 24 23 24 23 21 21 18 17 18 18 18 17 17 18 19 21 20 20 19 18 20 23 21 22 24 22 19 18 16 17 16 19 19 16
16 13 13 14 15 16 19 22 25 27 27 23 24 23 21 22 23 22 20 19 18 19 19 18 18 18 19 19 22 19 19 19 20 21 21 22 22 30 28 21 19 19 17 20 20 19 18
14 12 11 11 12 13 15 18 21 23 23 21 23 23 22 22 20 21 23 22 20 17 19 17 18 18 19 19 17 21 22 20 21 20 20 20 20 22 27 27 25 25 24 26 23 25 24
16 14 12 10 9 10 12 14 17 20 21 20 21 21 21 24 22 22 22 21 21 21 18 18 19 19 21 23 22 21 21 23 20 20 19 18 26 24 23 25 25 25 27 25 24 24 23
17 15 13 11 10 10 10 11 14 16 18 18 20 20 20 21 19 20 20 21 20 21 20 20 20 20 20 22 22 26 27 26 24 22 21 21 25 27 30 27 25 29 25 23 20 19 19
19 18 15 13 12 10 9 8 10 13 14 17 17 19 20 21 21 22 22 21 21 20 21 20 20 23 22 21 21 22 20 19 18 23 25 26 27 31 33 29 35 32 19 24 20 22 23
22 19 17 15 13 12 9 8 9 12 13 16 16 17 20 25 21 22 21 21 21 21 22 20 20 23 19 21 24 22 19 18 18 17 16 21 21 25 31 32 31 20 28 19 19 24 25
23 21 19 17 15 12 9 8 8 10 12 16 16 17 19 23 22 24 23 24 23 23 24 22 21 19 21 26 26 29 26 23 22 18 16 11 16 25 28 28 29 26 19 23 24 22 25
24 22 20 19 16 14 11 9 10 11 12 14 15 16 19 24 24 21 24 24 26 25 25 22 20 18 21 23 24 27 28 28 26 24 25 15 13 19 24 27 27 22 24 27 22 17 31
27 24 23 21 18 15 12 10 11 11 10 14 16 16 18 24 23 22 24 24 20 22 24 22 22 22 19 23 25 26 28 25 28 27 27 24 21 21 22 24 23 25 31 27 19 22 28
27 26 25 21 18 16 14 12 12 12 10 15 16 15 17 22 23 21 21 21 21 20 23 21 24 20 20 22 25 25 27 25 26 23 25 26 26 23 22 25 26 26 27 24 24 25 26
28 27 23 19 18 15 13 13 11 9 12 14 18 15 15 21 21 19 20 18 17 16 17 16 19 18 18 21 22 23 26 25 24 30 23 26 21 23 23 22 25 33 26 23 25 28 32
Wind_Direction
19 18 18 20 25 26 33 36 36 37 40 38 15 11 353 328 340 327 325 322 343 7 61 76 83 94 98 91 97 100 86 92 83 69 30 55 33 38 33 32 17 33 1 356 2 351 350
11 8 12 13 4 8 22 20 25 14 1 318 325 333 356 351 333 318 319 331 345 54 69 84 90 94 92 86 105 107 100 69 20 36 21 32 46 69 50 39 19 352 343 358 5 5 353
4 4 11 8 7 13 20 21 23 26 16 317 318 324 345 353 328 318 316 316 19 74 74 77 86 91 79 87 99 102 82 67 40 26 32 35 48 40 37 24 33 21 357 336 348 355 351
0 7 10 5 1 13 22 23 24 21 16 22 359 314 315 319 326 312 311 305 74 79 78 76 78 85 80 94 95 79 86 84 49 44 30 34 28 34 27 30 18 8 18 351 351 348 345
9 7 8 1 359 12 19 19 16 18 14 9 340 329 320 314 315 308 308 53 56 65 77 77 72 75 75 88 77 87 81 81 96 64 54 32 29 20 10 3 6 1 343 342 343 357 350
8 7 6 2 5 11 16 16 17 13 12 6 6 329 323 324 313 309 306 49 52 60 68 76 70 69 65 66 79 84 82 82 71 72 60 48 44 57 38 30 54 17 347 349 346 345 340
5 6 6 5 4 6 9 10 11 10 9 5 360 339 325 322 321 324 26 46 41 47 38 51 57 61 67 70 72 71 66 79 73 62 57 44 42 46 34 29 27 15 357 344 341 344 334
358 358 359 2 359 359 2 3 4 3 5 5 359 349 327 313 3 14 28 35 43 49 47 55 61 64 64 57 62 62 38 55 50 47 47 45 45 41 28 21 18 15 3 349 345 342 330
356 356 357 357 357 359 358 358 358 358 359 0 356 352 328 318 25 24 21 30 45 48 47 47 52 53 51 47 51 49 35 47 41 37 33 33 40 27 18 10 8 6 0 355 348 340 348
352 352 353 355 357 357 355 354 352 352 351 354 353 353 347 332 26 27 24 22 34 45 44 41 39 44 42 42 44 41 28 34 31 25 26 37 37 23 15 14 4 4 358 347 343 343 344
346 349 353 356 357 356 355 351 347 347 346 347 350 355 355 12 21 22 23 21 38 41 27 35 36 42 38 35 32 34 29 29 23 22 28 25 23 21 12 15 4 358 344 346 345 346 342
338 345 349 353 356 355 352 349 345 343 343 344 349 354 357 17 24 26 17 26 32 30 24 27 35 27 23 26 27 26 28 28 28 27 28 24 16 20 23 15 8 353 346 349 353 353 351
332 338 344 349 353 353 351 348 344 342 341 342 345 352 10 21 16 21 17 27 24 20 28 23 18 18 15 21 22 25 19 16 19 13 14 14 21 24 21 15 6 1 357 354 357 357 351
326 333 339 344 349 351 350 348 344 342 341 339 338 358 15 20 18 16 22 18 10 19 16 18 14 9 13 14 19 16 14 11 18 21 11 11 6 16 23 7 6 3 6 359 347 346 342
317 325 333 341 346 347 348 342 341 342 340 342 348 4 10 12 14 17 13 8 12 12 14 4 5 5 9 9 7 6 8 10 18 19 9 4 5 11 5 7 7 6 360 1 349 346 343
308 316 325 334 338 343 345 342 337 340 340 340 355 357 3 5 8 10 9 6 10 15 10 7 360 5 360 360 359 0 3 9 9 14 14 6 354 5 7 7 360 359 1 353 354 346 342
299 308 318 328 331 337 341 343 339 338 338 349 355 355 1 359 9 5 2 3 6 9 9 5 360 355 357 356 356 356 359 3 7 6 8 1 356 359 358 357 354 355 352 352 349 348 341
289 298 309 317 323 332 335 340 342 340 337 355 355 348 357 360 356 2 1 6 8 5 5 359 359 356 355 356 352 353 353 359 5 0 352 357 351 344 345 348 349 350 347 346 337 340 337
279 287 302 311 318 326 333 337 341 341 346 351 347 347 359 0 351 356 359 357 358 354 357 357 355 355 355 352 348 351 353 1 358 354 355 356 351 342 346 359 1 354 351 341 336 332 312
272 278 290 301 310 319 330 336 340 344 347 352 347 343 349 357 360 354 351 350 350 355 350 352 350 349 347 344 345 343 343 352 352 351 350 349 341 332 328 334 338 328 323 323 319 314 310
270 271 273 281 293 311 322 332 341 344 345 348 344 343 347 340 346 349 350 346 343 344 349 350 348 346 344 341 340 337 340 340 345 344 344 345 332 330 326 327 329 323 322 319 310 303 298
264 261 260 263 274 293 306 323 336 343 348 346 341 342 345 341 345 345 345 343 339 341 341 341 337 341 341 335 336 333 335 335 334 344 344 345 332 335 329 329 329 327 327 327 324 317 310
257 255 251 250 261 271 285 308 326 335 342 343 345 343 341 339 339 338 338 338 337 340 340 339 340 336 332 332 335 330 326 324 322 329 330 330 330 332 332 340 336 333 351 343 342 344 337
258 250 246 244 250 259 267 289 312 323 329 336 341 343 336 328 330 332 334 334 332 333 330 335 337 332 341 341 334 330 324 319 317 313 314 323 331 333 330 336 337 351 345 354 357 348 344
251 243 238 242 243 247 254 271 297 318 325 324 331 333 331 326 327 324 325 327 330 331 328 329 332 336 341 338 338 335 339 343 348 352 347 324 335 333 335 336 332 342 2 355 347 345 345
247 243 241 236 240 240 239 254 277 304 315 326 329 331 328 323 321 329 327 327 326 329 329 334 344 347 342 341 338 334 333 336 338 342 353 353 342 335 337 336 337 348 342 340 341 334 336
248 240 235 235 233 233 235 246 274 293 311 321 324 325 327 319 324 327 324 326 334 333 331 337 338 340 344 338 333 333 331 340 335 337 338 343 338 323 326 331 335 342 336 333 330 330 336
241 239 235 232 228 231 237 254 264 284 307 313 321 326 323 320 322 324 326 324 329 331 329 337 336 341 342 337 334 335 333 338 337 340 338 336 334 333 333 328 328 346 339 341 333 332 331
246 236 226 221 224 224 236 249 261 283 295 312 312 331 334 320 322 335 334 334 334 336 336 342 338 345 343 339 339 339 333 336 337 330 338 334 337 334 333 328 327 329 332 327 324 321 318